STARLINK-32853, 62818

Orbit data source: Space-Track

STARLINK-32853, 62818 is a payload satellite owned by SpaceX/Seattle (US) in LEO that was launched on Fri, 24 Jan 2025 UTC via an FALCON 9 launch vehicle from the Air Force Western Test Range (AFWTR). Payload-class satellites include a variety of spacecraft equipped with specific instruments for various scientific and technological missions. These include communications satellites like Starlink; space stations such as the ISS; scientific satellites like the Hubble; Earth observation satellites from companies like Planet Labs, Umbra, and HawkEye 360; GPS; miniature CubeSats for education and research; and military/defense satellites.

Loading next visibility...
Identifier
62818, 2025-018N
Orbit
LEO
Last TLE update
8 hours ago
Origin
Manufacturer
SpaceX/Seattle
Mission
Operational Commercial Communications
Bus & Motor
STARLINK V2M, Unknown motor
Mass
730 kg wet, ~700 kg dry
Launch date (UTC)
2025-01-24 (5 months ago)
Launch vehicle
FALCON 9
Launch site
Air Force Western Test Range (AFWTR)
Object type
Payload
Rocket body
Debris
Shape & HBR
Box + 2 Pan, 29 m
Radar Cross Section
33.884 m², Large (>1 m²)

Expand to show TLE details & history

TLE from 8 hours ago
0 STARLINK-32853
1 62818U 25018N   25182.04148747  .00023044  00000-0  78764-3 0  9992
2 62818  53.1580  38.2167 0001190  89.4625 270.6512 15.30204145 25556
Epoch: 2025-07-01T00:59Z
TLE epoch observation values (Epoch: 2025-07-01T00:59:44.517Z)
Latitude
-0.00002°
Longitude
103.93856°
Altitude
476.093 km
Speed
7.629 km/s
True Right ascension
02h 32m 52s
True Declination
0° 00' 00"
Sunlit
Object was in daylight at epoch
Visualization orbit readout
Latitude
-44.46462°
Longitude
55.47616°
Altitude
490.881 km
Speed
7.619 km/s
Apparent Right ascension
03h 45m 02s
Apparent Declination
-66° 18' 45"
Sunlit
Object is in full shadow
Visualization observer readout
Local Sidereal Time
20:12:15
Azimuth
148.425° SSE
Elevation
-45.151°
Doppler factor
1
Orbital elements
Apogee altitude
476.275 km
Perigee altitude
474.644 km
Semi-major axis
6,853.596 km
Eccentricity
0.00012
Inclination
53.158°
RAAN
38.2167°
Arg. of periapsis
89.4625°
True anomaly
Unknown
Mean anomaly
270.6512°
Eccentric anomaly
Unknown
Mean motion
3.8253 °/min
Orbital period
94.11 mins
BSTAR
0.00078764
Loading maneuver chart data...
Loading SW <> Apogee altitude chart data...
Loading historical data...
Loading historical data...
Loading historical data...
Loading historical data...
Loading historical data...
Loading historical data...
Loading historical data...

STARLINK-32853 Visibility forecast

Observer location: undefined°, undefined°

Span
Click to sort rows by Start time (UTC) header in descending order
Start Az.
Max El. time (UTC)
Max El. Az.
Max El.
End time (UTC)
End Az.
6 mins2025-07-01 16:50:06.607Z212.099° SW2025-07-01 16:53:06.607Z149.978° SSE38.728°2025-07-01 16:56:06.607Z61.265° ENE
4 mins2025-07-01 18:30:06.607Z301.714° NW2025-07-01 18:31:06.607Z325.216° NNW21.622°2025-07-01 18:34:06.607Z25.648° NE
5 mins2025-07-01 23:26:06.607Z328.733° NNW2025-07-01 23:28:06.607Z24.939° NE35.986°2025-07-01 23:31:06.607Z106.671° ESE
|